FW5447 Weather Reports


Display with metric or nautical units.
time (UTC)temp
F
wind
direction
speed
MPH
gust
MPH
rain 1hr
in
rain 24hr
in
rain mn
in
humidity
%
barometer
mb
20260506072538 50 351 2.0 7.0 0.00 0.00 0.00 49 1011.0
20260506071518 50 47 2.0 5.0 0.00 0.00 0.00 50 1010.9
20260506070515 48 343 2.0 6.0 0.00 0.00 0.00 52 1011.3
20260506061557 46 218 1.0 4.0 0.00 0.00 0.00 72 1012.0
20260506060517 45 183 3.0 7.0 0.00 0.00 0.00 76 1011.7
20260506050518 40 202 1.0 5.0 0.00 0.00 0.00 89 1011.5
20260506044517 37 290 1.0 2.0 0.00 0.00 0.00 91 1011.5
20260506043538 36 211 1.0 2.0 0.00 0.00 0.00 92 1011.5
20260506042517 34 225 1.0 4.0 0.00 0.00 0.00 94 1011.4
20260506041518 32 174 1.0 6.0 0.00 0.00 0.00 95 1011.4
20260506040538 31 316 0.0 1.0 0.00 0.00 0.00 96 1011.5
20260506035518 30 274 0.0 1.0 0.00 0.00 0.00 96 1011.6
20260506034518 29 216 0.0 1.0 0.00 0.00 0.00 96 1011.6
20260506033535 29 170 0.0 0.0 0.00 0.00 0.00 96 1011.5
20260506032556 28 196 1.0 2.0 0.00 0.00 0.00 96 1011.4
20260506031516 28 109 0.0 1.0 0.00 0.00 0.00 96 1011.3
20260506030516 27 145 0.0 2.0 0.00 0.00 0.00 95 1011.3
20260506025516 27 45 0.0 1.0 0.00 0.00 0.00 95 1011.3
20260506024536 28 48 0.0 1.0 0.00 0.00 0.00 95 1011.1
20260506023537 28 120 1.0 2.0 0.00 0.00 0.00 95 1011.1
20260506022516 28 208 1.0 2.0 0.00 0.00 0.00 95 1011.1
20260506021517 28 189 0.0 2.0 0.00 0.00 0.00 95 1010.9
20260506020537 28 197 0.0 1.0 0.00 0.00 0.00 95 1010.9
20260506015517 28 199 1.0 2.0 0.00 0.00 0.00 95 1010.7
20260506014517 28 215 0.0 2.0 0.00 0.00 0.00 95 1010.7
20260506013517 28 195 0.0 1.0 0.00 0.00 0.00 95 1010.7
20260506012518 28 34 0.0 2.0 0.00 0.00 0.00 95 1010.7
20260506011518 29 194 0.0 1.0 0.00 0.00 0.00 94 1010.6
20260506010518 29 221 0.0 1.0 0.00 0.00 0.00 94 1010.4
20260506005538 30 289 0.0 2.0 0.00 0.00 0.00 94 1010.3
20260506004515 30 251 1.0 2.0 0.00 0.00 0.00 94 1010.2
20260506003515 29 321 1.0 2.0 0.00 0.00 0.00 94 1010.1
20260506002515 29 299 0.0 2.0 0.00 0.00 0.00 94 1010.1
20260506001515 29 226 1.0 2.0 0.00 0.00 0.00 94 1010.0
20260506000516 30 226 1.0 2.0 0.00 0.00 0.00 94 1010.0
20260505235516 30 284 0.0 2.0 0.00 0.00 0.00 94 1009.9
20260505234536 30 262 0.0 1.0 0.00 0.00 0.00 93 1010.0
20260505233516 30 248 0.0 1.0 0.00 0.00 0.00 93 1009.9
20260505232516 31 241 0.0 1.0 0.00 0.00 0.00 93 1009.8
20260505231517 30 215 1.0 2.0 0.00 0.00 0.00 93 1009.7
20260505230516 30 225 1.0 2.0 0.00 0.00 0.00 92 1009.8
20260505225540 30 246 0.0 2.0 0.00 0.00 0.00 92 1009.8
20260505224517 30 206 0.0 1.0 0.00 0.00 0.00 91 1009.7
20260505223518 31 212 0.0 2.0 0.00 0.00 0.00 91 1009.7
20260505222518 31 208 0.0 1.0 0.00 0.00 0.00 91 1009.7
20260505221517 31 254 0.0 1.0 0.00 0.00 0.00 90 1009.7
20260505220518 31 206 0.0 1.0 0.00 0.00 0.00 89 1009.6
20260505215538 31 199 0.0 1.0 0.00 0.00 0.00 89 1009.3
20260505214518 32 221 0.0 2.0 0.00 0.00 0.00 88 1009.5
20260505213516 32 216 1.0 3.0 0.00 0.00 0.00 88 1009.4
20260505212538 32 197 0.0 1.0 0.00 0.00 0.00 87 1009.5
20260505211518 32 229 0.0 1.0 0.00 0.00 0.00 86 1009.4
20260505210518 33 232 0.0 2.0 0.00 0.00 0.00 85 1009.3
20260505205516 33 211 1.0 2.0 0.00 0.00 0.00 85 1009.1
20260505204516 33 204 1.0 3.0 0.00 0.00 0.00 85 1009.1
20260505203516 33 212 1.0 2.0 0.00 0.00 0.00 83 1009.1
20260505202516 33 214 1.0 2.0 0.00 0.00 0.00 82 1009.0
20260505201516 34 221 1.0 2.0 0.00 0.00 0.00 82 1008.9
20260505200516 34 215 1.0 1.0 0.00 0.00 0.00 81 1008.9
20260505195517 34 233 0.0 1.0 0.00 0.00 0.00 80 1008.9
20260505194517 35 202 1.0 2.0 0.00 0.00 0.00 78 1008.8
20260505193517 36 224 1.0 3.0 0.00 0.00 0.00 77 1008.8
20260505192517 36 254 0.0 1.0 0.00 0.00 0.00 75 1008.8
20260505191517 37 239 0.0 1.0 0.00 0.00 0.00 74 1008.7
20260505190517 38 215 0.0 1.0 0.00 0.00 0.00 73 1008.6
20260505185517 39 218 0.0 1.0 0.00 0.00 0.00 70 1008.5
20260505184518 39 240 1.0 2.0 0.00 0.00 0.00 69 1008.4
20260505183538 40 245 1.0 2.0 0.00 0.00 0.00 68 1008.4
20260505182518 41 233 0.0 1.0 0.00 0.00 0.00 66 1008.3
20260505181518 42 219 0.0 2.0 0.00 0.00 0.00 64 1008.1
20260505180518 42 193 1.0 4.0 0.00 0.00 0.00 62 1008.0
20260505175518 43 182 1.0 2.0 0.00 0.00 0.00 60 1007.8
20260505174515 44 194 1.0 2.0 0.00 0.00 0.00 59 1007.7
20260505173535 45 353 1.0 3.0 0.00 0.00 0.00 56 1007.6
20260505172516 45 212 1.0 3.0 0.00 0.00 0.00 56 1007.6
20260505171536 46 342 2.0 4.0 0.00 0.00 0.00 55 1007.4
20260505170516 46 198 1.0 3.0 0.00 0.00 0.00 53 1007.4
20260505165516 47 227 2.0 5.0 0.00 0.00 0.00 54 1007.3
20260505164516 47 111 2.0 6.0 0.00 0.00 0.00 54 1007.2
20260505163517 48 135 2.0 4.0 0.00 0.00 0.00 55 1007.2
20260505162517 48 165 1.0 3.0 0.00 0.00 0.00 54 1007.1
20260505161517 48 45 2.0 7.0 0.00 0.00 0.00 53 1007.0
20260505160517 49 312 2.0 5.0 0.00 0.00 0.00 53 1006.9
20260505152518 50 38 3.0 6.0 0.00 0.00 0.00 55 1006.7
20260505151518 50 143 3.0 7.0 0.00 0.00 0.00 55 1006.7
20260505150518 50 329 3.0 6.0 0.00 0.00 0.00 55 1006.7
20260505140515 54 179 3.0 5.0 0.00 0.00 0.00 54 1005.7
20260505124517 56 248 3.0 7.0 0.00 0.00 0.00 53 1005.0
20260505123518 56 280 3.0 7.0 0.00 0.00 0.00 53 1004.7
20260505122518 56 229 3.0 8.0 0.00 0.00 0.00 54 1004.6
20260505121518 56 157 3.0 7.0 0.00 0.00 0.00 54 1004.6
20260505120538 57 308 3.0 8.0 0.00 0.00 0.00 52 1004.4
20260505115518 57 235 3.0 8.0 0.00 0.00 0.00 52 1004.2
20260505114518 56 280 3.0 7.0 0.00 0.00 0.00 54 1004.2
20260505113518 57 333 3.0 7.0 0.00 0.00 0.00 54 1003.9
20260505112515 57 290 3.0 6.0 0.00 0.00 0.00 55 1004.2
20260505111515 57 298 3.0 8.0 0.00 0.00 0.00 54 1003.7
20260505110516 57 271 4.0 8.0 0.00 0.00 0.00 54 1004.0
20260505101517 57 287 3.0 9.0 0.00 0.02 0.00 55 1003.3
20260505100517 58 269 3.0 9.0 0.00 0.03 0.00 55 1003.5
20260505095517 59 336 3.0 8.0 0.00 0.03 0.00 52 1003.1
20260505094537 59 203 4.0 10.0 0.00 0.03 0.00 50 1002.4
20260505093537 58 258 3.0 8.0 0.00 0.04 0.00 50 1003.0
20260505092518 59 247 3.0 8.0 0.00 0.06 0.00 50 1002.9
20260505091517 59 253 3.0 13.0 0.00 0.06 0.00 51 1002.5
20260505090518 58 284 4.0 12.0 0.00 0.06 0.00 53 1002.5
20260505085518 58 193 3.0 9.0 0.00 0.06 0.00 54 1002.5
20260505084518 58 237 4.0 10.0 0.00 0.06 0.00 53 1002.5
20260505083518 58 208 5.0 13.0 0.00 0.06 0.00 53 1002.4
20260505082515 57 182 3.0 6.0 0.00 0.06 0.00 54 1002.2
20260505081556 57 198 6.0 13.0 0.00 0.07 0.00 54 1002.4
20260505080515 57 197 5.0 11.0 0.00 0.07 0.00 53 1002.3
20260505075516 57 202 4.0 9.0 0.00 0.07 0.00 53 1002.3
20260505074536 57 210 4.0 9.0 0.00 0.08 0.00 52 1002.2
20260505073516 57 223 3.0 8.0 0.00 0.08 0.00 53 1002.1